XE2OR-10 Weather Reports


time (UTC)temp
C
wind
direction
speed
KPH
gust
KPH
rain 1hr
cm
rain 24hr
cm
rain mn
cm
humidity
%
barometer
mb
20260510143848 27 162 0.0 0.0 0.00 0.00 0.00 81 1014.3
20260510143349 27 171 0.0 0.0 0.00 0.00 0.00 81 1014.2
20260510142848 27 153 0.0 0.0 0.00 0.00 0.00 82 1014.4
20260510142353 27 186 0.0 0.0 0.00 0.00 0.00 82 1014.1
20260510141849 26 151 1.6 3.2 0.00 0.00 0.00 82 1014.2
20260510141353 26 165 1.6 3.2 0.00 0.00 0.00 82 1014.2
20260510140849 26 147 0.0 0.0 0.00 0.00 0.00 82 1014.1
20260510140349 26 151 0.0 0.0 0.00 0.00 0.00 82 1014.1
20260510135849 26 193 0.0 0.0 0.00 0.00 0.00 83 1014.0
20260510135352 26 191 0.0 0.0 0.00 0.00 0.00 84 1013.9
20260510134849 25 164 0.0 0.0 0.00 0.00 0.00 85 1014.0
20260510134352 25 162 0.0 0.0 0.00 0.00 0.00 84 1013.9
20260510133849 25 182 0.0 0.0 0.00 0.00 0.00 85 1014.0
20260510133349 25 186 0.0 0.0 0.00 0.00 0.00 85 1014.2
20260510132849 25 193 0.0 0.0 0.00 0.00 0.00 86 1014.1
20260510132352 24 168 0.0 0.0 0.00 0.00 0.00 87 1014.0
20260510131849 23 157 0.0 0.0 0.00 0.00 0.00 88 1014.0
20260510131352 23 158 0.0 0.0 0.00 0.00 0.00 89 1014.0
20260510130849 23 155 1.6 3.2 0.00 0.00 0.00 89 1013.8
20260510130349 23 164 0.0 0.0 0.00 0.00 0.00 90 1013.9
20260510125849 22 159 0.0 0.0 0.00 0.00 0.00 91 1013.5
20260510125352 22 169 0.0 0.0 0.00 0.00 0.00 92 1013.8
20260510124849 22 165 0.0 0.0 0.00 0.00 0.00 92 1013.7
20260510124352 22 160 1.6 3.2 0.00 0.00 0.00 92 1013.9
20260510123849 22 156 0.0 0.0 0.00 0.00 0.00 92 1013.7
20260510123349 22 118 0.0 0.0 0.00 0.00 0.00 92 1013.6
20260510122850 22 60 0.0 0.0 0.00 0.00 0.00 92 1013.7
20260510122353 22 180 0.0 0.0 0.00 0.00 0.00 92 1013.5
20260510121849 22 180 0.0 0.0 0.00 0.00 0.00 93 1013.5
20260510121353 22 181 0.0 0.0 0.00 0.00 0.00 92 1013.5
20260510120849 22 181 0.0 0.0 0.00 0.00 0.00 92 1013.3
20260510120349 22 175 0.0 0.0 0.00 0.00 0.00 92 1013.4
20260510115849 22 175 0.0 0.0 0.00 0.00 0.00 92 1013.2
20260510115352 22 178 0.0 0.0 0.00 0.00 0.00 92 1013.1
20260510114849 22 180 0.0 0.0 0.00 0.00 0.00 92 1013.3
20260510114352 22 177 0.0 0.0 0.00 0.00 0.00 91 1013.4
20260510113849 22 175 0.0 0.0 0.00 0.00 0.00 91 1013.2
20260510113349 22 174 0.0 0.0 0.00 0.00 0.00 91 1013.3
20260510112849 22 176 0.0 0.0 0.00 0.00 0.00 91 1013.0
20260510112352 22 178 0.0 0.0 0.00 0.00 0.00 91 1013.2
20260510111849 22 170 0.0 0.0 0.00 0.00 0.00 90 1013.2
20260510111352 22 171 0.0 0.0 0.00 0.00 0.00 90 1013.2
20260510110849 22 174 0.0 0.0 0.00 0.00 0.00 90 1015.2
20260510110349 22 175 0.0 0.0 0.00 0.00 0.00 90 1015.1
20260510105849 22 166 0.0 0.0 0.00 0.00 0.00 89 1015.1
20260510105352 23 166 1.6 3.2 0.00 0.00 0.00 89 1015.3
20260510104853 -17 157 0.0 0.0 0.00 0.00 0.00 89 1015.2
20260510104849 23 157 0.0 0.0 0.00 0.00 0.00 89 1015.2
20260510104352 23 161 0.0 0.0 0.00 0.00 0.00 89 1015.2
20260510103849 23 180 0.0 0.0 0.00 0.00 0.00 89 1015.1
20260510103349 23 166 1.6 3.2 0.00 0.00 0.00 89 1015.0
20260510102849 23 184 0.0 0.0 0.00 0.00 0.00 89 1015.1
20260510102352 23 167 0.0 0.0 0.00 0.00 0.00 88 1015.0
20260510101849 23 166 0.0 0.0 0.00 0.00 0.00 89 1015.1
20260510101352 23 191 0.0 0.0 0.00 0.00 0.00 89 1015.1
20260510100853 23 165 0.0 0.0 0.00 0.00 0.00 1015.3
20260510100849 23 165 0.0 0.0 0.00 0.00 0.00 88 1015.3
20260510100349 23 166 0.0 0.0 0.00 0.00 0.00 88 1015.1
20260510095849 23 169 0.0 0.0 0.00 0.00 0.00 88 1015.0
20260510095352 23 183 0.0 0.0 0.00 0.00 0.00 88 1014.9
20260510094849 23 166 0.0 0.0 0.00 0.00 0.00 88 1015.2
20260510094352 23 177 0.0 0.0 0.00 0.00 0.00 88 1015.0
20260510093849 23 176 0.0 0.0 0.00 0.00 0.00 87 1015.0
20260510093349 23 169 0.0 0.0 0.00 0.00 0.00 87 1015.1
20260510092851 23 166 1.6 3.2 0.00 0.00 0.00 87 1015.2
20260510092849 23 166 1.6 3.2 0.00 0.00 0.00 87 1015.2
20260510092352 23 172 0.0 0.0 0.00 0.00 0.00 86 1014.9
20260510091848 23 170 0.0 0.0 0.00 0.00 0.00 86 1015.1
20260510091353 23 161 1.6 3.2 0.00 0.00 0.00 86 1015.0
20260510090849 23 168 1.6 3.2 0.00 0.00 0.00 85 1014.8
20260510090349 23 174 0.0 0.0 0.00 0.00 0.00 85 1015.0
20260510085849 23 163 0.0 0.0 0.00 0.00 0.00 85 1015.0
20260510085353 24 174 0.0 0.0 0.00 0.00 0.00 84 1015.1
20260510084849 24 162 0.0 0.0 0.00 0.00 0.00 84 1014.9
20260510084352 24 144 0.0 0.0 0.00 0.00 0.00 84 1015.1
20260510083849 24 185 0.0 0.0 0.00 0.00 0.00 83 1014.9
20260510083348 24 165 1.6 3.2 0.00 0.00 0.00 83 1015.0
20260510082849 25 158 0.0 0.0 0.00 0.00 0.00 83 1015.1
20260510082352 25 166 1.6 4.8 0.00 0.00 0.00 82 1015.1
20260510081849 25 144 3.2 4.8 0.00 0.00 0.00 82 1014.9
20260510081352 25 164 0.0 0.0 0.00 0.00 0.00 81 1015.0
20260510080849 25 164 0.0 0.0 0.00 0.00 0.00 81 1014.8
20260510080348 25 161 1.6 3.2 0.00 0.00 0.00 81 1014.8
20260510075849 25 158 0.0 0.0 0.00 0.00 0.00 81 1014.8
20260510075352 25 194 1.6 3.2 0.00 0.00 0.00 81 1014.8
20260510074848 25 153 1.6 4.8 0.00 0.00 0.00 80 1014.8
20260510074352 25 187 1.6 3.2 0.00 0.00 0.00 80 1014.9
20260510073848 25 194 0.0 0.0 0.00 0.00 0.00 80 1014.8
20260510073349 25 184 0.0 0.0 0.00 0.00 0.00 80 1015.0
20260510072848 25 191 0.0 0.0 0.00 0.00 0.00 80 1015.0
20260510072352 25 169 1.6 3.2 0.00 0.00 0.00 80 1014.8
20260510071848 25 162 0.0 0.0 0.00 0.00 0.00 80 1014.8
20260510071352 25 193 1.6 3.2 0.00 0.00 0.00 80 1014.9
20260510070848 25 194 0.0 0.0 0.00 0.00 0.00 80 1014.9
20260510070349 25 197 0.0 0.0 0.00 0.00 0.00 80 1014.9
20260510065849 25 174 0.0 0.0 0.00 0.00 0.00 79 1015.0
20260510065353 25 179 0.0 0.0 0.00 0.00 0.00 79 1015.0
20260510064849 25 157 0.0 0.0 0.00 0.00 0.00 79 1015.2
20260510064353 25 161 1.6 3.2 0.00 0.00 0.00 79 1014.8
20260510063849 25 179 0.0 0.0 0.00 0.00 0.00 79 1014.9
20260510063349 25 185 0.0 0.0 0.00 0.00 0.00 79 1015.2
20260510062849 25 166 0.0 0.0 0.00 0.00 0.00 78 1015.1
20260510062353 25 154 0.0 0.0 0.00 0.00 0.00 78 1015.2
20260510061849 25 179 0.0 0.0 0.00 0.00 0.00 78 1015.0
20260510061353 25 171 0.0 0.0 0.00 0.00 0.00 78 1014.8
20260510060849 25 180 0.0 0.0 0.00 0.00 0.00 78 1014.9
20260510060349 25 191 0.0 0.0 0.00 0.00 0.00 77 1014.8
20260510055849 25 186 0.0 0.0 0.00 0.00 0.00 77 1014.9
20260510055353 25 194 0.0 0.0 0.00 0.00 0.00 77 1015.1
20260510054849 25 194 0.0 0.0 0.00 0.00 0.00 77 1014.8
20260510054352 26 187 0.0 0.0 0.00 0.00 0.00 76 1015.1
20260510053849 26 182 0.0 0.0 0.00 0.00 0.00 76 1014.7
20260510053348 26 170 0.0 0.0 0.00 0.00 0.00 76 1015.1
20260510052849 26 175 0.0 0.0 0.00 0.00 0.00 75 1015.0
20260510052352 26 185 0.0 0.0 0.00 0.00 0.00 75 1015.1
20260510051849 26 186 0.0 0.0 0.00 0.00 0.00 75 1014.9
20260510051352 26 178 0.0 0.0 0.00 0.00 0.00 74 1015.1
20260510050849 26 164 0.0 0.0 0.00 0.00 0.00 74 1015.0
20260510050349 26 139 3.2 4.8 0.00 0.00 0.00 74 1014.9
20260510045849 26 180 0.0 0.0 0.00 0.00 0.00 74 1015.1
20260510045352 26 170 3.2 4.8 0.00 0.00 0.00 73 1015.0
20260510044849 27 172 0.0 0.0 0.00 0.00 0.00 73 1015.0
20260510044352 27 161 0.0 0.0 0.00 0.00 0.00 73 1015.2
20260510043849 27 171 0.0 0.0 0.00 0.00 0.00 72 1015.2
20260510043349 27 153 3.2 3.2 0.00 0.00 0.00 72 1015.1
20260510042849 27 173 0.0 0.0 0.00 0.00 0.00 71 1015.1
20260510042352 27 152 3.2 4.8 0.00 0.00 0.00 71 1015.0
20260510041848 27 161 4.8 6.4 0.00 0.00 0.00 70 1015.1
20260510041352 27 159 0.0 0.0 0.00 0.00 0.00 69 1015.1
20260510040848 27 118 4.8 6.4 0.00 0.00 0.00 68 1014.9
20260510040349 27 125 4.8 6.4 0.00 0.00 0.00 67 1015.0
20260510035848 28 151 3.2 6.4 0.00 0.00 0.00 66 1015.0
20260510035352 28 175 1.6 3.2 0.00 0.00 0.00 65 1014.6
20260510034848 28 130 4.8 6.4 0.00 0.00 0.00 64 1014.9
20260510034352 28 147 3.2 4.8 0.00 0.00 0.00 64 1014.7
20260510033848 28 160 1.6 3.2 0.00 0.00 0.00 64 1014.8
20260510033349 28 152 0.0 0.0 0.00 0.00 0.00 64 1014.6
20260510032848 28 109 3.2 3.2 0.00 0.00 0.00 63 1014.7
20260510032352 28 171 0.0 0.0 0.00 0.00 0.00 63 1014.4
20260510031848 28 162 0.0 0.0 0.00 0.00 0.00 62 1014.2
20260510031352 28 166 1.6 3.2 0.00 0.00 0.00 62 1014.1
20260510030848 28 177 0.0 0.0 0.00 0.00 0.00 62 1014.0
20260510030349 28 168 0.0 0.0 0.00 0.00 0.00 62 1013.9
20260510025848 28 173 0.0 0.0 0.00 0.00 0.00 62 1013.7
20260510025352 28 168 0.0 0.0 0.00 0.00 0.00 62 1013.7
20260510024848 29 173 0.0 0.0 0.00 0.00 0.00 61 1013.5
20260510024352 29 158 0.0 0.0 0.00 0.00 0.00 60 1013.5
20260510023848 30 171 0.0 0.0 0.00 0.00 0.00 60 1013.5
20260510023349 30 168 1.6 3.2 0.00 0.00 0.00 59 1013.4
20260510022848 30 166 0.0 0.0 0.00 0.00 0.00 59 1013.5
20260510022352 30 164 1.6 3.2 0.00 0.00 0.00 59 1013.5
20260510021848 30 145 0.0 0.0 0.00 0.00 0.00 59 1013.3
20260510021353 30 169 0.0 0.0 0.00 0.00 0.00 58 1013.2
20260510020849 30 138 0.0 0.0 0.00 0.00 0.00 58 1013.2
20260510020349 30 153 1.6 3.2 0.00 0.00 0.00 58 1013.1
20260510015848 30 169 0.0 0.0 0.00 0.00 0.00 58 1012.8
20260510015353 31 164 0.0 0.0 0.00 0.00 0.00 57 1013.0
20260510014849 31 167 0.0 0.0 0.00 0.00 0.00 57 1012.8
20260510014353 31 125 0.0 0.0 0.00 0.00 0.00 57 1012.8
20260510013849 31 172 1.6 3.2 0.00 0.00 0.00 57 1012.7
20260510013349 31 162 0.0 0.0 0.00 0.00 0.00 56 1012.7
20260510012849 31 166 0.0 0.0 0.00 0.00 0.00 56 1012.4
20260510012353 31 112 0.0 0.0 0.00 0.00 0.00 56 1012.3
20260510011849 32 153 0.0 0.0 0.00 0.00 0.00 55 1012.3
20260510011353 32 115 1.6 4.8 0.00 0.00 0.00 55 1012.3
20260510010849 32 170 0.0 0.0 0.00 0.00 0.00 55 1012.2
20260510010349 32 162 0.0 0.0 0.00 0.00 0.00 55 1012.0
20260510005849 32 174 0.0 0.0 0.00 0.00 0.00 55 1012.2
20260510005353 32 174 0.0 0.0 0.00 0.00 0.00 54 1012.0
20260510004849 32 169 0.0 0.0 0.00 0.00 0.00 55 1012.1
20260510004352 32 108 1.6 3.2 0.00 0.00 0.00 54 1012.1
20260510003849 32 182 0.0 0.0 0.00 0.00 0.00 54 1012.0
20260510003348 33 189 0.0 0.0 0.00 0.00 0.00 54 1011.9
20260510002849 33 140 0.0 0.0 0.00 0.00 0.00 53 1012.0
20260510002352 33 161 0.0 0.0 0.00 0.00 0.00 53 1012.1
20260510001849 33 169 0.0 0.0 0.00 0.00 0.00 53 1011.8
20260510001353 33 96 3.2 4.8 0.00 0.00 0.00 52 1011.8
20260510000849 33 111 0.0 0.0 0.00 0.00 0.00 52 1011.9
20260510000349 33 200 1.6 3.2 0.00 0.00 0.00 52 1011.8
20260509235849 33 161 0.0 0.0 0.00 0.00 0.00 52 1012.1
20260509235352 34 118 1.6 3.2 0.00 0.00 0.00 52 1011.9
20260509234849 34 180 0.0 0.0 0.00 0.00 0.00 49 1011.8
20260509234352 34 208 0.0 0.0 0.00 0.00 0.00 51 1012.1
20260509233849 35 295 1.6 3.2 0.00 0.00 0.00 50 1011.8
20260509233348 35 186 0.0 0.0 0.00 0.00 0.00 48 1011.6
20260509232849 35 268 0.0 0.0 0.00 0.00 0.00 50 1011.9
20260509232352 36 214 0.0 0.0 0.00 0.00 0.00 49 1012.0
20260509231849 34 220 0.0 0.0 0.00 0.00 0.00 51 1011.8
20260509231352 34 332 0.0 0.0 0.00 0.00 0.00 51 1011.9
20260509230849 35 176 0.0 0.0 0.00 0.00 0.00 50 1012.1
20260509230348 34 71 1.6 3.2 0.00 0.00 0.00 51 1011.8
20260509225849 35 324 1.6 3.2 0.00 0.00 0.00 51 1011.8
20260509225352 34 109 0.0 0.0 0.00 0.00 0.00 52 1011.8
20260509224849 35 339 3.2 4.8 0.00 0.00 0.00 52 1011.8
20260509224352 35 3 4.8 6.4 0.00 0.00 0.00 51 1011.9
20260509223849 35 352 3.2 6.4 0.00 0.00 0.00 50 1012.0
20260509223349 36 317 4.8 4.8 0.00 0.00 0.00 50 1012.0
20260509222849 36 204 0.0 0.0 0.00 0.00 0.00 48 1012.0
20260509222352 35 285 0.0 0.0 0.00 0.00 0.00 50 1012.0
20260509221849 35 175 1.6 3.2 0.00 0.00 0.00 50 1011.9
20260509221352 36 179 0.0 0.0 0.00 0.00 0.00 48 1011.9
20260509220849 35 67 1.6 3.2 0.00 0.00 0.00 48 1012.2
20260509220349 35 204 0.0 0.0 0.00 0.00 0.00 49 1012.1
20260509215849 35 168 0.0 0.0 0.00 0.00 0.00 49 1012.4
20260509215352 35 68 4.8 6.4 0.00 0.00 0.00 50 1012.2
20260509214849 35 227 0.0 0.0 0.00 0.00 0.00 50 1012.3
20260509214352 34 333 1.6 3.2 0.00 0.00 0.00 53 1012.4
20260509213848 34 30 1.6 3.2 0.00 0.00 0.00 52 1012.3
20260509213349 35 11 0.0 0.0 0.00 0.00 0.00 52 1012.2
20260509212849 35 304 1.6 3.2 0.00 0.00 0.00 52 1012.3
20260509212352 35 174 0.0 0.0 0.00 0.00 0.00 50 1012.6
20260509211849 35 160 1.6 3.2 0.00 0.00 0.00 52 1012.6
20260509211352 35 117 4.8 6.4 0.00 0.00 0.00 53 1012.6
20260509210849 34 25 3.2 6.4 0.00 0.00 0.00 52 1012.7
20260509210349 34 191 0.0 0.0 0.00 0.00 0.00 54 1012.8
20260509205849 33 90 1.6 6.4 0.00 0.00 0.00 54 1012.8
20260509205352 34 76 4.8 6.4 0.00 0.00 0.00 53 1012.8
20260509204849 35 232 1.6 3.2 0.00 0.00 0.00 54 1013.0
20260509204352 35 186 1.6 6.4 0.00 0.00 0.00 55 1013.2
20260509203849 33 173 0.0 0.0 0.00 0.00 0.00 57 1013.2
20260509203348 33 359 0.0 0.0 0.00 0.00 0.00 57 1013.4
20260509202849 34 66 1.6 3.2 0.00 0.00 0.00 57 1013.5
20260509202352 33 169 0.0 0.0 0.00 0.00 0.00 56 1013.6
20260509201849 33 212 0.0 0.0 0.00 0.00 0.00 55 1013.5
20260509201352 33 9 0.0 0.0 0.00 0.00 0.00 57 1013.5
20260509200849 33 219 0.0 0.0 0.00 0.00 0.00 56 1013.8
20260509200348 33 212 1.6 3.2 0.00 0.00 0.00 57 1013.7
20260509195849 33 84 3.2 4.8 0.00 0.00 0.00 56 1014.0
20260509195352 33 254 1.6 3.2 0.00 0.00 0.00 62 1013.9
20260509194849 32 98 1.6 3.2 0.00 0.00 0.00 60 1014.0
20260509194352 33 195 0.0 0.0 0.00 0.00 0.00 60 1014.3
20260509193849 33 241 1.6 3.2 0.00 0.00 0.00 60 1014.2
20260509193349 33 244 0.0 0.0 0.00 0.00 0.00 60 1014.4
20260509192849 33 180 1.6 4.8 0.00 0.00 0.00 60 1014.5
20260509192352 32 235 0.0 0.0 0.00 0.00 0.00 61 1014.4
20260509191849 32 347 1.6 3.2 0.00 0.00 0.00 65 1014.5
20260509191352 31 3 4.8 9.7 0.00 0.00 0.00 65 1014.7
20260509190849 31 168 1.6 3.2 0.00 0.00 0.00 67 1014.8
20260509190349 31 339 6.4 8.0 0.00 0.00 0.00 68 1014.8
20260509185849 32 148 4.8 8.0 0.00 0.00 0.00 66 1015.0
20260509185352 32 230 3.2 4.8 0.00 0.00 0.00 67 1014.9
20260509184848 31 239 0.0 0.0 0.00 0.00 0.00 68 1015.0
20260509184352 32 166 0.0 0.0 0.00 0.00 0.00 67 1015.2
20260509183848 31 209 0.0 0.0 0.00 0.00 0.00 67 1015.4
20260509183349 32 58 1.6 3.2 0.00 0.00 0.00 67 1015.4
20260509182849 31 163 1.6 3.2 0.00 0.00 0.00 68 1015.6
20260509182352 31 55 1.6 4.8 0.00 0.00 0.00 70 1015.5
20260509181848 31 195 1.6 3.2 0.00 0.00 0.00 72 1015.7
20260509181353 31 127 1.6 3.2 0.00 0.00 0.00 71 1015.8
20260509180849 30 210 1.6 3.2 0.00 0.00 0.00 72 1015.9
20260509180349 30 241 0.0 0.0 0.00 0.00 0.00 74 1015.9
20260509175848 29 195 0.0 0.0 0.00 0.00 0.00 75 1016.1
20260509175353 29 210 0.0 0.0 0.00 0.00 0.00 76 1016.2
20260509174849 30 175 1.6 3.2 0.00 0.00 0.00 75 1016.2
20260509174353 30 213 1.6 3.2 0.00 0.00 0.00 75 1016.4
20260509173849 30 212 0.0 0.0 0.00 0.00 0.00 76 1016.4
20260509173349 30 152 0.0 0.0 0.00 0.00 0.00 75 1016.4
20260509172848 30 127 1.6 3.2 0.00 0.00 0.00 75 1016.3
20260509172353 29 241 1.6 3.2 0.00 0.00 0.00 77 1016.5
20260509171849 28 145 3.2 4.8 0.00 0.00 0.00 77 1016.5
20260509171353 28 264 1.6 3.2 0.00 0.00 0.00 78 1016.6
20260509170849 29 198 0.0 0.0 0.00 0.00 0.00 78 1016.8
20260509170349 28 157 0.0 0.0 0.00 0.00 0.00 79 1016.7
20260509165849 28 160 0.0 0.0 0.00 0.00 0.00 80 1016.7
20260509165353 27 185 0.0 0.0 0.00 0.00 0.00 82 1016.8
20260509164849 26 199 0.0 0.0 0.00 0.00 0.00 82 1016.9
20260509164353 26 155 0.0 0.0 0.00 0.00 0.00 83 1017.1
20260509163849 25 92 0.0 0.0 0.00 0.00 0.00 83 1016.9
20260509163349 26 3 1.6 4.8 0.00 0.00 0.00 83 1017.2
20260509162849 26 113 0.0 0.0 0.00 0.00 0.00 83 1017.0
20260509162353 26 132 0.0 0.0 0.00 0.00 0.00 83 1017.0
20260509161849 27 158 0.0 0.0 0.00 0.00 0.00 83 1017.2
20260509161353 26 175 0.0 0.0 0.00 0.00 0.00 83 1016.8
20260509160849 26 223 0.0 0.0 0.00 0.00 0.00 84 1017.1
20260509160349 26 117 0.0 0.0 0.00 0.00 0.00 83 1016.9
20260509155849 26 67 0.0 0.0 0.00 0.00 0.00 82 1017.1
20260509155352 27 194 0.0 0.0 0.00 0.00 0.00 83 1017.2
20260509154849 26 162 0.0 0.0 0.00 0.00 0.00 83 1017.0
20260509154352 26 108 0.0 0.0 0.00 0.00 0.00 84 1017.0
20260509153849 25 71 1.6 3.2 0.00 0.00 0.00 84 1017.3
20260509153348 25 167 0.0 0.0 0.00 0.00 0.00 85 1017.2
20260509152849 25 158 1.6 3.2 0.00 0.00 0.00 85 1017.1
20260509152352 25 202 0.0 0.0 0.00 0.00 0.00 85 1017.2
20260509151849 25 202 1.6 3.2 0.00 0.00 0.00 85 1016.9
20260509151352 25 181 0.0 0.0 0.00 0.00 0.00 86 1017.0
20260509150849 25 165 0.0 0.0 0.00 0.00 0.00 86 1017.1
20260509150349 25 196 0.0 0.0 0.00 0.00 0.00 86 1017.0
20260509145849 25 191 0.0 0.0 0.00 0.00 0.00 87 1016.9
20260509145353 24 161 0.0 0.0 0.00 0.00 0.00 87 1017.0
20260509144849 25 161 0.0 0.0 0.00 0.00 0.00 86 1016.8
20260509144352 25 153 0.0 0.0 0.00 0.00 0.00 86 1016.8